Regional Weather Roundup
Issued by NWS

Home | Current Version | Previous Version | Text Only | Print | Product List | Glossary Off
Versions: 1 2 3 4 5 6 7 8 9 10 11 12 13 14 15 16 17 18 19 20 21 22 23 24 25 26 27 28 29 30 31 32 33 34 35 36 37 38 39 40 41 42 43 44 45 46 47 48 49 50

000
ASUS43 KIND 262059
RWRIN

WEATHER ROUNDUP FOR INDIANA
NATIONAL WEATHER SERVICE INDIANAPOLIS IN
500 PM EDT SUN APR 26 2015

NOTE: "FAIR" INDICATES FEW OR NO CLOUDS BELOW 12,000 FEET WITH NO
SIGNIFICANT WEATHER AND/OR OBSTRUCTIONS TO VISIBILITY.

* - STATION DOES NOT REPORT WEATHER SUCH AS PRECIPITATION OR FOG.

+ - STATION NOT QUALITY CONTROLLED BY THE NATIONAL WEATHER SERVICE.
    USE DATA WITH CAUTION...ESPECIALLY DEWPOINT AND RELATIVE
    HUMIDITY OBSERVATIONS.

INZ001>003-010>013-019-020-262200-
NORTHWEST INDIANA

CITY           SKY/WX    TMP DP  RH WIND       PRES   REMARKS
GARY /AIRPORT/ SUNNY     50  27  40 N14       30.02S
KNOX *+        SUNNY     54   9  16 N20G25    29.95S

$$

LMZ046-743>745-262200-
SOUTHERN LAKE MICHIGAN

STATION/POSITION TIME  TEMP    WIND        PRES    WAVE
                       AIR SEA DIR/SP/G            HT
                 (UTC) (F)     (DEG/KT/KT) (MB)    (FT)
BURNS HARBOR     2000   41     350/ 12/ 15 1016.6F
MICHIGAN CITY    2000   41     340/ 13/ 15   N/A
5NW MICH CITY    2000   39 45  360/ 16/ 19   N/A     4

$$

INZ004-005-014>016-021>024-262200-
NORTH CENTRAL INDIANA

CITY           SKY/WX    TMP DP  RH WIND       PRES   REMARKS
ELKHART        MOSUNNY   57  28  33 NW9G21    29.93S
GOSHEN         MOSUNNY   56  32  40 NE13G20   29.91F
SOUTH BEND     SUNNY     55  31  39 N18       29.96S
WARSAW +       MOSUNNY   55  32  41 N13G20    29.91F

$$

INZ006>009-017-018-025>027-262200-
NORTHEAST INDIANA

CITY           SKY/WX    TMP DP  RH WIND       PRES   REMARKS
ANGOLA *+      PTSUNNY   55  30  38 NE10      29.89F
FORT WAYNE     MOSUNNY   57  34  41 N13       29.90F

$$

INZ028-029-035-036-043>045-051>053-262200-
WEST CENTRAL INDIANA

CITY           SKY/WX    TMP DP  RH WIND       PRES   REMARKS
CRAWFORDSVL +  CLOUDY    53  29  41 N13G18    29.92F
GREENCASTLE +  MOSUNNY   54  32  43 N15       29.91S
LAFAYETTE      MOSUNNY   56  34  43 N16       29.92F
TERRE HAUTE    SUNNY     59  37  44 NE13G22   29.90F

$$

INZ030>032-037>040-046>048-054>057-064-065-262200-
CENTRAL INDIANA

CITY           SKY/WX    TMP DP  RH WIND       PRES   REMARKS
COLUMBUS       MOSUNNY   55  32  41 N17       29.88F
FRANKFORT +    MOSUNNY   57  37  47 NW8G17    29.93F
GREENWOOD *+   MOSUNNY   57  32  38 N13       29.89F
INDIANAPOLIS   MOSUNNY   56  34  43 N15       29.89F
-EAGLE CREEK   MOSUNNY   55  33  43 N10       29.90F
KOKOMO *+      MOSUNNY   57  36  44 NE17      29.90F
MT COMFORT *+  MOSUNNY   55  25  30 N12G21    29.89F
SHELBYVILLE    PTSUNNY   59  37  44 N12       29.88S

$$

INZ033-034-041-042-049-050-058-059-262200-
EAST CENTRAL INDIANA

CITY           SKY/WX    TMP DP  RH WIND       PRES   REMARKS
MUNCIE         MOSUNNY   55  35  47 N10       29.89S

$$

INZ060-061-067>069-081>083-085>088-262200-
SOUTHWEST INDIANA

CITY           SKY/WX    TMP DP  RH WIND       PRES   REMARKS
EVANSVILLE     SUNNY     63  33  32 N15       29.87F
HUNTINGBURG *+ SUNNY     63  34  34 N9G18     29.85F

$$

INZ062-063-066-070>080-084-089>092-262200-
SOUTH CENTRAL AND SOUTHEAST INDIANA

CITY           SKY/WX    TMP DP  RH WIND       PRES   REMARKS
BLOOMINGTON    MOSUNNY   60  36  40 N14G22    29.87F
MADISON *+     SUNNY     61  32  33 N13G21    29.85F
SEYMOUR +      SUNNY     61  37  41 N15G24    29.86F

$$



USA.gov is the U.S. government's official web portal to all federal, state and local government web resources and services.